Regional Weather Roundup
Issued by NWS Northern Indiana

Home | Current Version | Previous Version | Text Only | Print | Product List | Glossary On
Versions: 1 2 3 4 5 6 7 8 9 10 11 12 13 14 15 16 17 18 19 20 21 22 23 24 25 26 27 28 29 30 31 32 33 34 35 36 37 38 39 40 41 42 43 44 45 46 47 48 49 50
000
ASUS43 KIWX 230010
RWRIWX

KIWX WEATHER ROUNDUP
NATIONAL WEATHER SERVICE NORTHERN INDIANA
700 PM EST MON DEC 22 2014

NOTE: "FAIR" INDICATES FEW OR NO CLOUDS BELOW 12,000 FEET WITH NO
SIGNIFICANT WEATHER AND/OR OBSTRUCTIONS TO VISIBILITY.

* THESE STATIONS ARE NOT UNDER NWS QUALITY CONTROL. THEY ALSO MAY NOT
  REPORT WEATHER SUCH AS PRECIPITATION OR FOG.

INZ001>027-230100-
NORTHERN INDIANA

CITY           SKY/WX    TMP DP  RH WIND       PRES   REMARKS
GARY*          LGT RAIN  41  37  87 SE9       29.70
VALPARAISO     LGT RAIN  37  37 100 E12       29.71F FOG
6HR MIN TEMP:  35; 6HR MAX TEMP:  38; 6HR PCP:  0.07;

MICHIGAN CITY* DRIZZLE   37  36  93 SE9       29.73F
LAPORTE*       LGT RAIN  38  38 100 E10       29.73F
6HR MIN TEMP:  37; 6HR MAX TEMP:  38; 6HR PCP:  0.03;

KNOX*          CLOUDY    37  34  87 E15       29.72F
6HR MIN TEMP:   9; 6HR MAX TEMP:  81;

SOUTH BEND     LGT RAIN  38  35  89 SE17      29.77F FOG
6HR MIN TEMP:  35; 6HR MAX TEMP:  38; 6HR PCP:  0.03;

ELKHART*       RAIN      37  32  81 E12       29.79S
GOSHEN         LGT RAIN  37  33  85 E13       29.79S FOG
6HR MIN TEMP:  36; 6HR MAX TEMP:  37; 6HR PCP:  0.01;

MONTICELLO*    RAIN      39  37  95 E8        29.71F
6HR MIN TEMP:  36; 6HR MAX TEMP:  39; 6HR PCP:  0.03;

LOGANSPORT*    LGT RAIN  37  36  93 E10       29.74S
ROCHESTER*     LGT RAIN  39  37  93 E9        29.76F
WARSAW*        LGT RAIN  36  34  93 E13       29.77F
ANGOLA*        MOCLDY    34  30  86 SE13      29.82R WCI  25
FORT WAYNE     LGT RAIN  37  34  89 E9        29.81F FOG
6HR MIN TEMP:  35; 6HR MAX TEMP:  38; 6HR PCP: TRACE;

HUNTINGTON*    LGT RAIN  37  36  96 E7        29.78F
6HR MIN TEMP:  35; 6HR MAX TEMP:  38;

PERU/GRISSOM   LGT RAIN  39  39 100 E8        29.74F
6HR MIN TEMP:  37; 6HR MAX TEMP:  39; 6HR PCP:  0.02;

MARION*        CLOUDY    39  36  86 E10       29.76F
6HR MIN TEMP:  22; 6HR MAX TEMP:  50;


$$
INZ028>050-230100-
CENTRAL INDIANA

CITY           SKY/WX    TMP DP  RH WIND       PRES   REMARKS
LAFAYETTE      LGT RAIN  41  39  93 E10       29.70F
6HR MIN TEMP:  38; 6HR MAX TEMP:  41; 6HR PCP:  0.02;

KOKOMO*        CLOUDY    39  36  87 SE10      29.75R
6HR MIN TEMP:  37; 6HR MAX TEMP:  39; 6HR PCP:  0.01;

MUNCIE*        CLOUDY    40  36  86 E6        29.77F
6HR MIN TEMP:  39; 6HR MAX TEMP:  43; 6HR PCP: TRACE;

INDIANAPOLIS   LGT RAIN  42  38  85 SE15      29.70F
6HR MIN TEMP:  39; 6HR MAX TEMP:  44; 6HR PCP:  0.04;


$$
MIZ043>046-050>051-056>058-064>065-071>073-077>080-230100-
SOUTHWEST LOWER MICHIGAN

CITY           SKY/WX    TMP DP  RH WIND       PRES   REMARKS
BATTLE CREEK   CLOUDY    37  31  78 E10       29.83F
6HR MIN TEMP:  37; 6HR MAX TEMP:  39; 6HR PCP: TRACE;

BENTON HARBOR  MIX PCPN  37  36  96 E12       29.76F FOG
6HR MIN TEMP:  34; 6HR MAX TEMP:  37; 6HR PCP:  0.05;

COLDWATER*     CLOUDY    36  32  86 MISG      29.82S
6HR MIN TEMP:  35; 6HR MAX TEMP:  38;

HILLSDALE*     CLOUDY    34  33  94 E9        29.84S FOG     WCI  27
6HR MIN TEMP:  34; 6HR MAX TEMP:  38;

HOLLAND        LGT RAIN  37  33  85 E14       29.81S FOG
6HR MIN TEMP:  36; 6HR MAX TEMP:  37; 6HR PCP:  0.12;

GRAND RAPIDS   LGT RAIN  35  32  88 E15       29.84S FOG     WCI  25
6HR MIN TEMP:  35; 6HR MAX TEMP:  37; 6HR PCP:  0.08;

KALAMAZOO      CLOUDY    37  32  82 E10       29.82S
6HR MIN TEMP:  36; 6HR MAX TEMP:  39; 6HR PCP:  0.01;

STURGIS*       MIX PCPN  36  34  93 E9        29.81R
THREE RIVERS*  LGT RAIN  37  32  84 E8        29.82R
6HR MIN TEMP:  35; 6HR MAX TEMP:  37;


$$
OHZ001>008-015>018-024>025-230100-
NORTHWEST OHIO

CITY           SKY/WX    TMP DP  RH WIND       PRES   REMARKS
WAUSEON*       MOCLDY    34  30  86 E10       29.86F WCI  26
DEFIANCE       CLOUDY    37  31  78 E10       29.85F
6HR MIN TEMP:  36; 6HR MAX TEMP:  38;

FINDLAY        CLOUDY    40  33  76 E10       29.85F
6HR MIN TEMP:  39; 6HR MAX TEMP:  41;

TOLEDO EXPRESS CLOUDY    35  30  82 E9        29.88F WCI  28
6HR MIN TEMP:  34; 6HR MAX TEMP:  39;

TOLEDO METCALF CLOUDY    36  30  79 NE7       29.90F
6HR MIN TEMP:  35; 6HR MAX TEMP:  40;

LIMA           CLOUDY    42  34  73 E12       29.83F
6HR MIN TEMP:  41; 6HR MAX TEMP:  44;


$$
AND FOR LAKE MICHIGAN COASTAL AND OPEN LAKE BUOY OBSERVATIONS

STATION/POSITION TEMP    WIND        PRES    VSBY  WAVE
                 AIR SEA DIR/SP/G                  HT/PER
                 (F)     (DEG/KT/KT) (MB)    (MI)  (FT/S)
CALUMET HARBOR    40     110/ 14/ 21 1004.3F
SAINT JOSEPH      37      30/  1/  8 1007.8S

$$
&&


USA.gov is the U.S. government's official web portal to all federal, state and local government web resources and services.